Farquhar Airport

Jump to: basic info | weather | runways | comments

Related pages: nearby airports | nearby navaids | notams | map

Basic information (top)

Codes: FSFA
Location: lon -10.109600, lat 51.176102, elev 10 ft / 3 m msl
Status: small_airport

Weather (top)

Current conditions for Prince Said Ibrahim International Airport 474nm (878km) W (rec'd 2014/10/26 07:00Z):

FMCH 260700Z 22010KT 9999 SCT020 29/23 Q1016 NOSIG

Airport forecast for Prince Said Ibrahim International Airport 474nm (878km) W (rec'd 2014/10/26 06:00Z):

TAF FMCH 260500Z 2606/2712 25010KT 9999 FEW020 PROB30 
      TEMPO 2612/2616 SHRA 
      BECMG 2618/2620 10003KT 
      BECMG 2704/2706 24012KT

Runways (top)

13/31: 3,035 x 75 ft (925 x 23 m) — paved — not lighted

Latest comments (top)

No comments yet for Farquhar Airport

More... (top)

See also NOTAMs and nearby airports and navaids, or visit the Farquhar Airport page at the main OurAirports website..